| time (UTC) | temp F | wind direction | speed knots | gust knots | rain 1hr in | rain 24hr in | rain mn in | humidity % | barometer mb |
| 20260505194529 | 72 | 352 | 0.0 | 3.5 | 0.00 | 0.00 | 0.00 | 57 | 1015.5 |
| 20260505193029 | 72 | 34 | 0.9 | 3.5 | 0.00 | 0.00 | 0.00 | 57 | 1015.6 |
| 20260505191532 | 72 | 24 | 0.9 | 6.1 | 0.00 | 0.00 | 0.00 | 57 | 1015.6 |
| 20260505190029 | 71 | 8 | 0.9 | 4.3 | 0.00 | 0.00 | 0.00 | 59 | 1015.7 |
| 20260505184646 | 70 | 346 | 0.9 | 5.2 | 0.00 | 0.00 | 0.00 | 59 | 1015.8 |
| 20260505183030 | 70 | 319 | 0.9 | 4.3 | 0.00 | 0.00 | 0.00 | 59 | 1015.8 |
| 20260505181530 | 69 | 18 | 0.9 | 7.8 | 0.00 | 0.00 | 0.00 | 61 | 1015.8 |
| 20260505180104 | 69 | 4 | 0.9 | 7.0 | 0.00 | 0.00 | 0.00 | 60 | 1015.8 |
| 20260505174607 | 69 | 16 | 0.9 | 5.2 | 0.00 | 0.00 | 0.00 | 60 | 1015.9 |
| 20260505173106 | 69 | 325 | 0.0 | 4.3 | 0.00 | 0.00 | 0.00 | 61 | 1015.8 |
| 20260505163107 | 65 | 312 | 0.9 | 8.7 | 0.00 | 0.00 | 0.00 | 64 | 1015.7 |
| 20260505161530 | 65 | 4 | 0.0 | 5.2 | 0.00 | 0.00 | 0.00 | 65 | 1015.8 |
| 20260505151532 | 63 | 290 | 0.0 | 7.0 | 0.00 | 0.00 | 0.00 | 68 | 1015.7 |
| 20260505150103 | 62 | 198 | 0.0 | 5.2 | 0.00 | 0.00 | 0.00 | 71 | 1015.6 |
| 20260505124608 | 52 | 172 | 0.9 | 3.5 | 0.00 | 0.00 | 0.00 | 90 | 1014.6 |
| 20260505121605 | 52 | 200 | 0.9 | 3.5 | 0.00 | 0.00 | 0.00 | 91 | 1014.5 |
| 20260505113029 | 53 | 164 | 0.9 | 3.5 | 0.00 | 0.00 | 0.00 | 90 | 1014.3 |
| 20260505111531 | 53 | 194 | 0.9 | 3.5 | 0.00 | 0.00 | 0.00 | 90 | 1014.3 |
| 20260505101529 | 55 | 164 | 0.9 | 3.5 | 0.00 | 0.00 | 0.00 | 88 | 1013.8 |
| 20260505100029 | 55 | 151 | 0.9 | 3.5 | 0.00 | 0.00 | 0.00 | 87 | 1013.7 |
| 20260505093032 | 57 | 157 | 0.0 | 1.7 | 0.00 | 0.00 | 0.00 | 84 | 1013.6 |
| 20260505084645 | 59 | 173 | 0.0 | 2.6 | 0.00 | 0.00 | 0.00 | 80 | 1013.2 |
| 20260505083029 | 59 | 153 | 0.0 | 2.6 | 0.00 | 0.00 | 0.00 | 79 | 1013.2 |
| 20260505081646 | 60 | 180 | 0.0 | 2.6 | 0.00 | 0.00 | 0.00 | 80 | 1013.0 |
| 20260505080031 | 59 | 147 | 0.0 | 1.7 | 0.00 | 0.00 | 0.00 | 80 | 1012.9 |
| 20260505074530 | 60 | 124 | 0.0 | 1.7 | 0.00 | 0.00 | 0.00 | 78 | 1012.9 |
| 20260505073030 | 60 | 34 | 0.0 | 0.9 | 0.00 | 0.00 | 0.00 | 76 | 1012.8 |
| 20260505071531 | 61 | 112 | 0.0 | 1.7 | 0.00 | 0.00 | 0.00 | 75 | 1012.7 |
| 20260505070040 | 62 | 117 | 0.0 | 1.7 | 0.00 | 0.00 | 0.00 | 73 | 1012.6 |
| 20260505064532 | 63 | 137 | 0.0 | 2.6 | 0.00 | 0.00 | 0.00 | 71 | 1012.4 |
| 20260505063028 | 63 | 175 | 0.0 | 0.9 | 0.00 | 0.00 | 0.00 | 70 | 1012.5 |
| 20260505061533 | 63 | 204 | 0.0 | 2.6 | 0.00 | 0.00 | 0.00 | 70 | 1012.4 |
| 20260505060030 | 63 | 190 | 0.0 | 2.6 | 0.00 | 0.00 | 0.00 | 70 | 1012.4 |
| 20260505054531 | 63 | 168 | 0.0 | 1.7 | 0.00 | 0.00 | 0.00 | 68 | 1012.3 |
| 20260505051534 | 65 | 191 | 0.0 | 1.7 | 0.00 | 0.00 | 0.00 | 64 | 1012.2 |
| 20260505041532 | 66 | 226 | 0.0 | 2.6 | 0.00 | 0.00 | 0.00 | 59 | 1011.5 |
| 20260505040043 | 67 | 164 | 0.0 | 2.6 | 0.00 | 0.00 | 0.00 | 58 | 1011.2 |
| 20260505034528 | 68 | 212 | 0.0 | 1.7 | 0.00 | 0.00 | 0.00 | 58 | 1011.0 |
| 20260505033148 | 69 | 212 | 0.0 | 2.6 | 0.00 | 0.00 | 0.00 | 58 | 1010.7 |
| 20260505031604 | 71 | 206 | 0.0 | 2.6 | 0.00 | 0.00 | 0.00 | 55 | 1010.5 |
| 20260505030032 | 74 | 268 | 0.0 | 0.9 | 0.00 | 0.00 | 0.00 | 51 | 1010.2 |
| 20260505024531 | 76 | 120 | 0.0 | 2.6 | 0.00 | 0.00 | 0.00 | 50 | 1010.0 |
| 20260505023031 | 77 | 80 | 0.0 | 1.7 | 0.00 | 0.00 | 0.00 | 49 | 1010.0 |
| 20260505021531 | 78 | 53 | 0.0 | 5.2 | 0.00 | 0.00 | 0.00 | 47 | 1009.9 |
| 20260505020106 | 79 | 232 | 0.0 | 6.1 | 0.00 | 0.00 | 0.00 | 47 | 1009.9 |
| 20260505014532 | 78 | 290 | 0.0 | 4.3 | 0.00 | 0.00 | 0.00 | 47 | 1009.8 |
| 20260505013031 | 78 | 303 | 1.7 | 7.8 | 0.00 | 0.00 | 0.00 | 46 | 1009.9 |
| 20260505011530 | 80 | 355 | 1.7 | 9.6 | 0.00 | 0.00 | 0.00 | 46 | 1009.9 |
| 20260505003031 | 81 | 6 | 0.0 | 4.3 | 0.00 | 0.00 | 0.00 | 45 | 1009.8 |
| 20260505001531 | 80 | 351 | 2.6 | 11.3 | 0.00 | 0.00 | 0.00 | 44 | 1009.7 |
| 20260505000107 | 81 | 292 | 2.6 | 7.8 | 0.00 | 0.00 | 0.00 | 43 | 1009.6 |
| 20260504234531 | 81 | 257 | 2.6 | 11.3 | 0.00 | 0.00 | 0.00 | 43 | 1009.6 |
| 20260504230027 | 81 | 308 | 1.7 | 11.3 | 0.00 | 0.00 | 0.00 | 44 | 1009.6 |
| 20260504224532 | 81 | 322 | 1.7 | 9.6 | 0.00 | 0.00 | 0.00 | 45 | 1009.8 |
| 20260504223106 | 81 | 305 | 3.5 | 10.4 | 0.00 | 0.00 | 0.00 | 45 | 1009.9 |
| 20260504214530 | 82 | 295 | 0.9 | 6.1 | 0.00 | 0.00 | 0.00 | 43 | 1010.1 |
| 20260504213030 | 82 | 356 | 0.9 | 8.7 | 0.00 | 0.00 | 0.00 | 44 | 1010.3 |
| 20260504211608 | 82 | 264 | 0.0 | 8.7 | 0.00 | 0.00 | 0.00 | 44 | 1010.3 |
| 20260504210030 | 82 | 330 | 0.9 | 5.2 | 0.00 | 0.00 | 0.00 | 44 | 1010.5 |
| 20260504204530 | 82 | 254 | 0.0 | 6.1 | 0.00 | 0.00 | 0.00 | 43 | 1010.7 |
| 20260504201529 | 81 | 17 | 1.7 | 9.6 | 0.00 | 0.00 | 0.00 | 43 | 1011.0 |
| 20260504200032 | 81 | 48 | 0.0 | 3.5 | 0.00 | 0.00 | 0.00 | 42 | 1011.2 |